Location: Newberry Star Park
(29.6730°N, 82.6011°W)
Time: 10:50:03
(UTC-04:00)

OTV 5 (USA 277) - Visible Passes

Search period start: 22 July 2018 00:00
Search period end: 01 August 2018 00:00
Orbit: 312 x 321 km, 54.5° (Epoch: 05 July)

Date Brightness Start Highest point End Pass type
(mag) Time Alt. Az. Time Alt. Az. Time Alt. Az.
23 Jul ? 06:14:10 10° SSE 06:15:27 13° ESE 06:16:45 10° E visible
26 Jul ? 05:23:35 20° SSE 05:24:26 23° SE 05:26:40 10° ENE visible
27 Jul ? 05:37:54 38° SW 05:38:46 78° NW 05:41:28 10° NE visible
28 Jul ? 05:52:07 16° W 05:53:16 20° NW 05:55:23 10° N visible
29 Jul ? 04:35:23 16° ENE 04:35:23 16° ENE 04:36:02 10° NE visible
30 Jul ? 04:49:27 18° NNE 04:49:27 18° NNE 04:50:24 10° NNE visible
31 Jul ? 05:03:28 11° NNW 05:03:28 11° NNW 05:03:41 10° NNW visible
